Location: Aalen
(48.8330°N, 10.1000°E)
Time: 08:54:17
(UTC+02:00)

YUBILEINY - Visible Passes

Search period start: 01 April 2023 00:00
Search period end: 11 April 2023 00:00
Orbit: 1478 x 1509 km, 82.5° (Epoch: 31 March)

Date Brightness Start Highest point End Pass type
(mag) Time Alt. Az. Time Alt. Az. Time Alt. Az.
01 Apr ? 01:10:09 10° NNW 01:18:30 52° W 01:18:30 52° W visible
01 Apr ? 03:11:19 10° NW 03:13:08 11° WNW 03:14:25 10° WNW visible
01 Apr ? 22:24:00 10° N 22:31:12 27° ENE 22:33:32 24° E visible
02 Apr ? 00:20:19 10° N 00:29:11 85° W 00:29:27 83° SW visible
02 Apr ? 02:18:39 10° NNW 02:24:39 21° WNW 02:25:21 21° W visible
02 Apr ? 21:35:14 10° NNE 21:40:24 16° NE 21:44:29 12° ENE visible
02 Apr ? 23:30:42 10° N 23:39:27 61° ENE 23:40:24 58° E visible
03 Apr ? 01:28:04 10° NNW 01:35:49 36° W 01:36:19 36° W visible
03 Apr ? 22:41:18 10° N 22:49:22 37° ENE 22:51:22 34° E visible
04 Apr ? 00:38:02 10° NNW 00:46:39 61° W 00:47:17 60° WSW visible
04 Apr ? 02:37:45 10° NW 02:41:29 13° WNW 02:43:12 13° W visible
04 Apr ? 21:52:10 10° N 21:58:52 23° NE 22:02:21 19° E visible
04 Apr ? 23:48:16 10° N 23:57:10 84° E 23:58:16 72° SSE visible
05 Apr ? 01:46:15 10° NNW 01:52:55 25° WNW 01:54:11 24° W visible
05 Apr ? 21:03:39 10° NNE 21:07:56 14° NE 21:12:13 10° ENE visible
05 Apr ? 22:58:43 10° N 23:07:19 53° ENE 23:09:15 46° ESE visible
06 Apr ? 00:55:53 10° NNW 01:03:58 42° W 01:05:10 41° WSW visible
06 Apr ? 22:09:22 10° N 22:17:08 32° ENE 22:20:15 26° E visible
07 Apr ? 00:05:56 10° NNW 00:14:42 71° W 00:16:10 61° SW visible
07 Apr ? 02:04:55 10° NW 02:09:49 16° WNW 02:12:06 15° W visible
07 Apr ? 21:20:22 10° N 21:26:30 20° NE 21:31:16 13° E visible
07 Apr ? 23:16:14 10° N 23:25:07 74° ENE 23:27:11 56° SE visible
08 Apr ? 01:13:56 10° NNW 01:21:07 29° W 01:23:06 27° W visible
08 Apr ? 20:32:18 10° NNE 20:35:26 12° NE 20:38:34 10° ENE visible
08 Apr ? 22:26:45 10° N 22:35:11 46° ENE 22:38:12 35° ESE visible
09 Apr ? 00:23:43 10° NNW 00:32:05 50° W 00:34:08 43° WSW visible
09 Apr ? 21:37:29 10° N 21:44:51 28° ENE 21:49:15 19° E visible
09 Apr ? 23:33:52 10° NNW 23:42:44 81° W 23:45:10 54° S visible
10 Apr ? 01:32:21 10° NNW 01:38:07 20° WNW 01:41:06 17° W visible
10 Apr ? 20:48:37 10° N 20:54:06 17° NE 20:59:33 10° E visible
10 Apr ? 22:44:13 10° N 22:53:02 64° ENE 22:56:14 42° SE visible
